{"data":{"norad_id":67210,"epoch":"2026-09-20T16:32:30.632352Z","epoch_age_seconds":62317,"freshness":"FRESH","line1":"1 67210U 25304U   26263.68924343  .00003736  00000+0  32074-3 0  9995","line2":"2 67210  70.0015  42.7989 0002890 274.3198  85.7630 14.98333539 43096","mean_motion":14.98333539,"eccentricity":0.000289,"inclination_deg":70.0015,"raan_deg":42.7989,"arg_perigee_deg":274.3198,"mean_anomaly_deg":85.763,"bstar":0.00032074,"rev_number":4309,"period_min":96.106772125055,"perigee_km":570.03634431774,"apogee_km":574.05354948304,"semimajor_km":6950.1819469004,"source":"CELESTRAK","updated_at":"2026-09-21T09:00:36.138958Z"}}